Home   Weather   Pirmasens   Past weeks

Flag for Germany Past Weather in Pirmasens, Rhineland-Palatinate, Germany — Yesterday and Last 2 Weeks

51 °F

Light rain. Low clouds.

Feels Like: 51 °F
Forecast: 47 / 54 °F
Wind: No wind

Location: Ramstein

Current Time: Oct 24, 2016 at 8:28:36 PM

Latest Report: Oct 24, 2016 at 7:58 PM

Visibility: N/A

Pressure: 29.96 "Hg

Humidity: 100%

Dew Point: 51 °F

Location of PirmasensLocation

Past Weather in Pirmasens — Graph


Pirmasens Temperature Yesterday

Maximum temperature yesterday: 50 °F (at 2:58 PM)
Minimum temperature yesterday: 38 °F (at 2:58 AM)
Average temperature yesterday: 45 °F

High & Low Weather Summary for the Past Weeks

High68 °F (Oct 16, 4:58 PM)100% (Oct 9, 7:58 PM)30.30 "Hg (Oct 9, 7:58 PM)
Low32 °F (Oct 11, 1:58 AM)49% (Oct 16, 4:58 PM)29.67 "Hg (Oct 14, 6:58 PM)
Average46 °F92%30.03 "Hg
* Reported Oct 9 7:58 PM — Oct 24 7:02 PM, Pirmasens, Weather by CustomWeather, © 2016

Note: Actual official high and low records may vary slightly from our data, if they occured in-between our weather recording intervals... More about our weather records


Pirmasens Weather History for the Previous 24 Hours

Scroll right to see more
Time TempWeatherWind HumidityBarometerVisibility
7:02 PM
Mon, Oct 24
52 °FLight rain. Low clouds.No wind100%29.92 "HgN/A
6:58 PM52 °FLight rain. Low clouds.No wind100%29.94 "HgN/A
5:58 PM51 °FLow clouds.No wind100%29.92 "HgN/A
4:58 PM52 °FLow clouds.No wind100%29.92 "HgN/A
3:58 PM52 °FLow clouds.No wind100%29.90 "HgN/A
2:58 PM51 °FFog.No wind100%29.90 "Hg4 mi
1:58 PM51 °FLight rain. Fog.No wind100%29.90 "Hg2 mi
1:04 PM50 °FLight rain. Fog.No wind100%29.88 "Hg1 mi
12:58 PM50 °FLight rain. Fog.No wind99%29.90 "Hg2 mi
11:58 AM50 °FLight rain. Fog.No wind100%29.90 "Hg2 mi
10:58 AM50 °FLight rain. Fog.No wind100%29.91 "Hg4 mi
9:59 AM50 °FLight rain. Fog.No wind100%29.89 "Hg4 mi
8:58 AM48 °FLight rain. Fog.No wind100%29.90 "Hg4 mi
7:58 AM48 °FFog.No wind100%29.90 "Hg5 mi
7:01 AM48 °FFog.No wind100%29.87 "Hg6 mi
5:58 AM48 °FMostly cloudy.No wind100%29.88 "HgN/A
5:01 AM48 °FLight rain. Fog.No wind100%29.87 "Hg3 mi
3:58 AM47 °FFog.No wind100%29.91 "Hg1 mi
2:58 AM47 °FFog.No wind100%29.91 "Hg1 mi
1:58 AM47 °FDrizzle. Fog.No wind100%29.89 "Hg1 mi
12:58 AM46 °FLight rain. Fog.No wind100%29.89 "Hg6 mi
11:58 PM
Sun, Oct 23
46 °FLight rain. Passing clouds.3 mph100%29.88 "Hg5 mi
10:58 PM46 °FLight rain. Fog.No wind100%29.88 "Hg5 mi
9:58 PM46 °FLight rain. Fog.No wind100%29.89 "Hg5 mi
8:58 PM46 °FLight rain. Fog.No wind99%29.88 "Hg5 mi
Weather by CustomWeather, © 2016

See weather overviewHow to use our weather pages